sat.trackr.live / text

‹ back to catalog

STARLINK-36606

NORAD 67845 · 2026-033AA

PAYLOAD ACTIVE UNKNOWN

§ Identity

Operator
Country
US
Launch date
2026-02-16
Launch site
AFETR
Launch vehicle
Mass (kg)
RCS (m²)

Purposes: comms

External: N2YO · Heavens-Above · Gunter

§ Orbital elements

Epoch: 2026-09-19T08:14:12.569856Z

Period
94.27 min
Inclination
42.9995°
Eccentricity
0.0001276
Mean motion
15.27588478 rev/d
Perigee alt
482.1 km
Apogee alt
483.9 km
Semi-major
6,861.2 km
B*
4.5908e-4
RAAN
253.1416°
Arg perigee
268.7317°
Mean anomaly
91.3388°
Rev number
3,429

§ Raw data

STARLINK-366061 67845U 26033AA  26262.34320104  .00012395  00000+0  45908-3 0  99972 67845  42.9995 253.1416 0001276 268.7317  91.3388 15.27588478 34297

JSON: /api/v1/satellites/67845 · /tle

For live sub-satellite position, see the globe view (requires WebGL).

§ Visibility from observer

Set your observer location to see the next 7 days of passes ≥ 10°. The values pass through the URL so the page stays shareable.

No JS? Fill the form by hand. The geolocation button needs JavaScript.